Farmingdale, NY

3:44 AM EDT on May 29, 2017 (GMT -0400)
Republic

Weather History for KFRG - March, 2013

Change the Weather History Date:

Sunday, March 3, 2013

  Actual Average Record
Temperature  
Mean Temperature 34 °F -  
Max Temperature 39 °F 42 °F 57 °F (2004)
Min Temperature 28 °F 28 °F 12 °F (2009)
Degree Days  
Heating Degree Days 32    
Moisture  
Dew Point 20 °F    
Average Humidity 62    
Maximum Humidity 85    
Minimum Humidity 41    
Precipitation  
Precipitation 0.00 in - - ()
Sea Level Pressure  
Sea Level Pressure 29.71 in    
Wind  
Wind Speed 9 mph (NW)    
Max Wind Speed 15 mph    
Max Gust Speed 22 mph    
Visibility 10 miles    
Events Snow    
Averages and records for this station are not official NWS values.
T = Trace of Precipitation, MM = Missing Value Source: NWS Daily Summary

Daily Weather History Graph

Daily Weather History Graph

Search for Another Location

Airport or City:

Trip Planner

Search our weather history database for the weather conditions in past years. The results will help you decide how hot, cold, wet, or windy it might be!

Date:

Astronomy

Mar. 03, 2013 Rise Set
Actual Time 6:24 AM EST 5:47 PM EST
Civil Twilight 5:56 AM EST 6:14 PM EST
Nautical Twilight 5:25 AM EST 6:46 PM EST
Astronomical Twilight 4:53 AM EST 7:18 PM EST
Moon No Moon Rise 9:34 AM EST (3/3)
Length of Visible Light 12h 18m
Length of Day
11h 23m
Waning Gibbous, 64% of the Moon is Illuminated
Mar 3
Waning Gibbous
Mar 4
Last Quarter
Mar 11
New
Mar 19
First Quarter
Mar 27
Full

Hourly Weather History & Observations

Time (EST) Temp. Windchill Dew Point Humidity Pressure Visibility Wind Dir Wind Speed Gust Speed Precip Events Conditions
12:53 AM 30.9 °F 24.3 °F 27.0 °F 85% 29.72 in 9.0 mi NW 6.9 mph - N/A   Overcast
1:53 AM 30.0 °F 20.5 °F 25.0 °F 82% 29.72 in 9.0 mi NNW 11.5 mph - 0.00 in   Overcast
2:53 AM 30.0 °F 22.4 °F 25.0 °F 82% 29.70 in 10.0 mi NNW 8.1 mph 17.3 mph 0.00 in   Overcast
3:53 AM 30.0 °F 23.2 °F 24.1 °F 79% 29.70 in 10.0 mi NW 6.9 mph - N/A   Overcast
4:53 AM 28.9 °F 21.9 °F 23.0 °F 78% 29.71 in 7.0 mi NW 6.9 mph - 0.00 in Snow Light Snow
5:53 AM 28.9 °F 23.9 °F 21.9 °F 75% 29.72 in 10.0 mi NW 4.6 mph - 0.00 in   Overcast
6:53 AM 28.9 °F 21.9 °F 19.0 °F 67% 29.72 in 10.0 mi NW 6.9 mph - N/A   Overcast
7:53 AM 30.0 °F 21.7 °F 19.0 °F 64% 29.73 in 10.0 mi NW 9.2 mph - N/A   Overcast
8:53 AM 30.9 °F 22.2 °F 18.0 °F 59% 29.72 in 10.0 mi NNW 10.4 mph - N/A   Overcast
9:53 AM 32.0 °F 24.2 °F 18.0 °F 56% 29.72 in 10.0 mi WNW 9.2 mph - N/A   Overcast
10:53 AM 32.0 °F 21.6 °F 18.0 °F 56% 29.71 in 10.0 mi WNW 15.0 mph - N/A   Mostly Cloudy
11:53 AM 34.0 °F 26.6 °F 17.1 °F 50% 29.70 in 10.0 mi NNW 9.2 mph 19.6 mph N/A   Scattered Clouds
12:53 PM 35.1 °F 27.9 °F 18.0 °F 50% 29.68 in 10.0 mi NW 9.2 mph 18.4 mph N/A   Mostly Cloudy
1:53 PM 37.0 °F 30.4 °F 18.0 °F 46% 29.66 in 10.0 mi NNW 9.2 mph 18.4 mph N/A   Mostly Cloudy
2:53 PM 37.9 °F 30.0 °F 18.0 °F 45% 29.65 in 10.0 mi NNW 12.7 mph 20.7 mph N/A   Scattered Clouds
3:53 PM 39.0 °F 31.8 °F 17.1 °F 41% 29.65 in 10.0 mi NW 11.5 mph 19.6 mph N/A   Overcast
5:53 PM 35.1 °F 25.5 °F 21.0 °F 57% 29.68 in 10.0 mi NNW 15.0 mph 21.9 mph N/A   Overcast
6:53 PM 35.1 °F 27.4 °F 19.9 °F 54% 29.70 in 10.0 mi NW 10.4 mph - N/A   Overcast
7:53 PM 33.1 °F 25.5 °F 19.9 °F 59% 29.71 in 10.0 mi NW 9.2 mph - N/A   Scattered Clouds
8:53 PM 32.0 °F 23.0 °F 19.0 °F 59% 29.73 in 10.0 mi NW 11.5 mph - N/A   Clear
9:53 PM 30.9 °F 22.2 °F 17.1 °F 57% 29.73 in 10.0 mi NW 10.4 mph 18.4 mph N/A   Partly Cloudy
10:53 PM 30.0 °F 21.1 °F 17.1 °F 59% 29.73 in 10.0 mi NW 10.4 mph 18.4 mph N/A   Clear
11:53 PM 30.0 °F 21.7 °F 17.1 °F 59% 29.73 in 10.0 mi NW 9.2 mph 16.1 mph N/A   Overcast